Regional Weather Roundup
Issued by NWS Newport/Morehead, NC

Current Version | Previous Version | Text Only | Print | Product List | Glossary On
Versions: 1 2 3 4 5 6 7 8 9 10 11 12 13 14 15 16 17 18 19 20 21 22 23 24 25 26 27 28 29 30 31 32 33 34 35 36 37 38 39 40 41 42 43 44 45 46 47 48 49 50
000
ASUS42 KMHX 011410
RWRMHX
WEATHER ROUNDUP FOR EASTERN NORTH CAROLINA
NATIONAL WEATHER SERVICE NEWPORT/MOREHEAD CITY NC
1000 AM EDT WED OCT 01 2014

NOTE: "FAIR" INDICATES FEW OR NO CLOUDS BELOW 12,000 FEET
WITH NO SIGNIFICANT WEATHER AND/OR OBSTRUCTIONS TO VISIBILITY

NCZ015>017-031-032-045>047-102-103-011500-
NORTH COAST

CITY           SKY/WX    TMP DP  RH WIND       PRES   REMARKS
EDENTON        SUNNY     69  65  86 N7        29.99R
ELIZABETH CITY MOSUNNY   71  66  84 N9        29.98R
KITTY HAWK     SUNNY     72  64  74 N9        29.96R
MANTEO         MOSUNNY   72  64  75 N12       29.97R

$$

NCZ045>047-081-094-103-104-011500-
CENTRAL COAST

CITY           SKY/WX    TMP DP  RH WIND       PRES   REMARKS
FRISCO         SUNNY     71  66  84 N8G17     29.95R
SWANQUARTER      N/A     72 N/A N/A VRB3G12   29.94R

$$

NCZ095-097-098-100-101-011500-
SOUTHERN COAST

CITY           SKY/WX    TMP DP  RH WIND       PRES   REMARKS
BEAUFORT       SUNNY     73  65  75 N14       29.96R
CEDAR ISLAND     N/A     72 N/A N/A N7G15     30.00S
JACKSONVILLE   CLOUDY    66  64  93 N3        29.99R FOG
NEWPORT        NOT AVBL
PINEY ISLAND   MOSUNNY   75  66  73 N12       29.97R HAZE
WILMINGTON     SUNNY     71  64  78 N6        29.98R


$$

NCZ011>013-027>030-043-044-078>080-089-090>093-098-011500-
COASTAL PLAIN

CITY           SKY/WX    TMP DP  RH WIND       PRES   REMARKS
AHOSKIE        CLOUDY    63  62  97 CALM      30.01R FOG
CLINTON        SUNNY     68  63  84 CALM      30.01R
ELIZABETHTOWN  SUNNY     66  66 100 CALM      30.01R
GOLDSBORO      PTSUNNY   68  67  98 CALM      29.99R
GREENVILLE     MOSUNNY   68  66  94 CALM      30.01R
HAVELOCK       CLOUDY    71  66  84 NE7       29.99R
KENANSVILLE    MOSUNNY   66  65  96 CALM      30.01R
KINSTON        MOSUNNY   68  68 100 NE5       30.01R
NEW BERN       MOSUNNY   68  64  87 NE5       29.99R
RICHLANDS      CLOUDY    66  63  88 N5        29.99R
ROANOKE RAPIDS NOT AVBL
ROCKY MOUNT    CLOUDY    64  63  96 NE3       30.01R FOG
WASHINGTON     SUNNY     69  64  85 NE3       29.99R
WHITEVILLE     SUNNY     70  63  78 NE6       30.00R

$$

AMZ130-135-150-152-154-156-158-170-250-252-270-ANZ085-086-088-633-658-670-011500-
MARINE OBSERVATIONS

STATION/POSITION TIME  TEMP    WIND        PRES    WAVE   SWELL
                       AIR SEA DIR/SP/G            HT/PER HT/PER
                 (UTC) (F)     (DEG/KT/KT) (MB)    (FT/S) (FT/S)
CHESAPEAKE LIGHT 1300   69      10/ 12/ 14 1015.3
BUOY 44014       1400   70 71  360/ 14/ 17 1013.5    3/ 5   2/ 8
DUCK             1400   70 72   10/ 13/ 16 1014.0
2E DUCK          1400                        N/A     3/ 5   2/13
OREGON INLET     1400   72 74  360/ 11/ 16 1014.4
BUOY 44095       1400      73                N/A     4/ 5   2/13
20E OREGON INLET NOT AVBL
HATTERAS CG      1400   71 73   10/ 15/ 18 1014.6
DIAMOND BUOY     1400   72     350/ 17/ 19 1013.5    4/ 7   2/ 7
CAPE LOOKOUT     1300   69      10/ 10/ 12 1014.0
BEAUFORT LAB     1400   71 74   10/ 11/ 13 1014.0
30 SE NEW RIVER  1400   72 79   20/ 12/ 16 1014.2    3/ 4   2/ 7
5 SE WRIGHTSVILL 1300   67 76   10/ 10/ 14   N/A
BUOY 41002       1336   79 80   10/ 12/ 12 1012.0    3/13   2/13
BUOY 41004       1400   77 81   20/ 10/ 14 1014.3    3/ 5   2/ 5

$$


USA.gov is the U.S. government's official web portal to all federal, state and local government web resources and services.